RH
96 92 81 74 75 73 73 74 74 75 75 77 75 75 77 76 75 74 74 74 74 74 73 71 72 70 70 71 71 72 74 72 69 66 68 73 76 76 74 75 75 65 71
90 86 81 76 74 75 75 76 74 75 76 77 78 75 74 75 77 74 73 75 77 75 73 73 72 71 72 72 72 73 72 71 67 68 68 70 71 73 75 69 69 63 72
89 83 80 79 74 76 76 76 74 74 74 73 73 73 75 75 72 73 76 74 77 75 75 73 72 70 73 72 71 71 71 71 70 70 76 77 73 70 70 74 75 69 73
87 87 84 82 77 75 76 75 74 72 73 73 72 72 72 72 73 74 71 73 76 77 74 73 72 70 71 74 74 73 74 73 72 77 80 73 67 74 74 75 77 77 75
88 89 87 78 77 75 74 74 73 73 72 72 71 70 71 72 71 72 72 72 73 72 74 71 71 71 70 72 75 74 74 74 75 79 81 84 80 72 74 74 75 76 78
96 94 82 76 75 74 74 74 73 73 73 72 70 68 69 71 72 71 72 70 74 73 70 72 75 71 71 72 72 71 71 78 77 78 81 80 81 74 75 75 75 72 71
96 90 79 80 75 75 76 77 75 73 73 72 70 68 68 70 72 70 72 69 70 73 74 70 73 74 73 72 72 72 69 71 77 79 82 83 80 78 72 71 73 73 77
92 92 87 78 75 75 76 76 76 75 74 73 70 68 68 68 71 71 71 70 69 69 71 72 70 70 72 72 72 72 69 68 74 79 79 84 83 81 75 73 69 70 73
86 93 92 85 77 75 76 76 76 75 75 75 71 69 69 71 68 70 71 70 68 68 68 68 71 72 70 70 71 71 71 68 80 85 74 79 83 81 76 76 73 71 77
96 95 96 94 87 87 83 75 75 75 75 74 72 70 69 68 68 68 72 70 68 67 67 67 68 69 70 70 70 70 69 68 78 81 82 83 82 78 73 78 76 71 73
96 96 97 96 95 95 92 84 76 74 74 73 73 70 73 94 88 84 78 75 68 69 68 69 68 68 69 69 69 70 69 86 81 86 84 83 82 73 73 71 75 74 72
95 99 98 97 97 96 83 92 91 87 88 88 92 91 97 95 87 78 74 72 71 68 68 72 69 69 70 85 90 77 86 86 81 85 87 83 78 72 71 75 77 76 73
91 95 97 98 97 97 97 96 97 94 93 96 93 94 97 94 93 90 94 86 95 83 86 81 82 83 82 88 90 91 89 85 89 83 74 81 78 70 67 74 78 75 73
96 93 95 97 98 98 97 98 97 98 96 97 97 94 99 97 88 92 87 91 91 90 88 90 93 90 88 87 86 84 83 87 85 82 84 80 80 76 73 74 74 76 76
91 90 94 97 97 97 96 96 96 95 93 93 97 94 98 98 94 93 91 96 94 93 92 91 95 93 93 89 84 84 84 83 83 84 80 79 82 80 76 76 75 76 74
85 84 91 94 93 91 92 94 94 93 93 92 97 97 95 95 97 93 96 96 97 96 96 96 95 94 93 86 91 84 87 83 83 83 88 79 81 83 79 78 78 78 77
85 85 85 89 91 88 89 90 92 90 94 95 86 94 92 92 94 92 96 97 95 96 95 97 95 95 97 89 92 85 82 86 78 78 77 81 81 79 82 80 78 79 80
86 90 84 72 81 87 87 86 87 88 90 87 87 93 90 89 91 91 97 97 96 97 98 98 97 97 95 94 91 92 83 77 78 80 81 80 81 67 72 80 79 78 80
85 89 80 83 80 83 87 86 86 83 85 83 84 87 89 88 88 90 89 96 97 98 98 96 98 98 95 93 93 91 85 84 78 69 80 76 85 83 76 79 83 80 76
86 89 83 78 85 89 89 89 88 86 84 84 84 87 88 87 87 90 89 90 92 98 95 97 95 93 95 93 92 82 92 93 91 85 85 74 85 82 84 86 85 73 83
80 86 86 84 88 90 89 90 90 86 85 84 83 82 83 84 87 90 89 89 89 90 89 91 94 90 92 93 96 94 94 88 88 87 89 89 85 80 85 90 92 89 81
76 82 85 81 86 88 87 88 85 87 84 84 83 85 82 83 85 86 90 87 87 85 88 91 91 96 95 93 84 96 94 90 87 87 90 84 86 86 84 83 84 87 89
77 82 87 90 83 86 86 90 89 94 93 89 86 86 82 83 82 84 88 87 86 87 87 86 92 94 94 93 91 91 94 94 95 92 86 87 87 91 90 90 87 88 89
76 87 91 91 86 87 88 92 89 94 93 92 88 88 85 84 88 83 87 87 90 86 90 93 81 92 94 91 94 89 93 90 93 93 88 84 89 87 89 90 84 87 84
82 86 84 90 90 92 86 89 94 94 96 88 92 92 92 95 92 85 91 86 93 97 90 90 90 93 89 94 92 96 94 96 93 94 94 91 85 87 90 90 88 90 81
87 83 86 92 93 90 90 92 94 93 93 96 94 94 86 92 96 88 92 94 97 96 96 97 96 92 95 94 96 91 90 93 94 93 94 90 91 85 87 83 86 90 90
Wind_Speed
7 7 13 14 14 15 15 15 15 15 15 15 15 14 13 14 13 12 10 9 8 8 9 9 10 13 14 14 13 14 14 12 13 13 12 12 12 13 14 13 10 11 12
12 10 15 14 14 14 14 14 14 14 13 13 14 14 13 12 11 11 10 9 8 9 9 10 9 11 13 13 13 14 13 12 12 12 12 11 12 12 12 12 12 11 12
14 11 11 13 14 14 13 13 13 13 13 12 12 11 11 10 10 9 9 10 10 12 10 10 10 10 11 14 13 13 12 12 11 12 11 6 6 10 11 11 11 12 11
13 9 8 13 13 13 12 11 11 11 12 11 10 9 9 8 7 9 8 8 10 9 10 9 10 10 10 12 13 12 11 11 10 10 4 5 6 9 10 10 10 10 9
12 8 9 14 14 13 13 12 11 10 10 10 8 7 7 6 8 6 7 7 8 9 10 10 10 11 11 12 11 12 12 10 11 7 4 4 4 7 8 7 9 9 10
9 8 12 16 15 14 13 12 11 10 9 9 8 6 5 5 6 7 6 7 7 8 9 10 9 10 11 11 12 11 11 13 8 4 3 4 3 7 7 7 7 8 9
9 9 10 15 15 14 13 12 12 10 9 8 7 6 4 5 6 7 6 7 5 6 6 10 9 9 8 9 9 9 9 7 5 3 4 2 1 3 7 6 6 6 5
10 7 8 15 15 14 13 12 12 10 9 8 7 5 5 4 4 7 6 7 6 5 5 6 9 9 7 6 7 6 6 7 5 4 5 4 5 5 8 8 7 8 6
7 5 5 7 12 14 13 12 11 11 10 9 7 6 4 4 4 3 4 4 5 6 5 5 6 8 8 7 6 4 4 4 3 2 3 4 10 9 10 8 8 7 5
5 4 4 4 5 5 5 12 11 11 10 8 7 6 5 5 5 4 3 3 5 6 6 5 5 5 6 6 6 6 7 7 2 3 3 4 12 12 10 9 9 8 8
5 4 4 4 4 5 4 5 10 10 9 7 5 5 4 2 3 3 2 5 7 7 6 6 6 6 6 7 7 8 8 1 3 2 2 7 13 14 12 11 10 10 10
10 7 6 5 5 4 3 2 1 1 0 0 1 3 0 3 2 1 4 6 8 8 7 6 6 7 6 2 2 6 1 3 3 3 3 8 13 15 14 13 13 13 13
10 7 7 6 5 5 3 2 1 1 1 1 3 3 2 2 2 2 2 2 2 2 1 1 2 1 3 3 3 3 3 4 3 4 5 10 12 15 15 15 15 15 16
10 9 7 6 5 4 2 2 3 2 2 2 3 6 3 2 2 2 2 2 2 1 2 2 2 3 4 5 5 5 6 4 4 4 6 10 13 17 18 17 14 16 16
9 9 8 6 6 4 4 3 3 3 3 3 3 3 4 3 3 2 3 2 2 2 3 3 3 4 4 5 5 7 7 6 7 4 4 13 13 14 15 17 18 16 16
8 9 6 6 5 5 5 4 4 3 3 3 4 4 6 4 3 3 3 3 3 3 2 3 2 2 4 5 5 6 7 6 7 7 5 7 14 14 15 18 18 18 17
8 5 6 6 6 6 6 5 4 4 4 4 5 5 6 4 4 4 3 2 2 2 3 3 3 3 4 5 6 6 6 7 7 7 6 5 7 14 14 17 17 18 17
5 7 6 8 8 7 6 5 4 4 4 4 4 4 7 5 6 4 3 3 2 3 3 2 2 3 3 4 3 4 5 5 6 7 5 5 5 6 7 13 16 17 17
7 7 7 8 8 9 7 5 4 4 4 4 3 4 5 5 5 4 4 4 4 3 3 3 2 4 3 3 4 3 4 4 7 6 6 6 7 6 5 9 11 15 17
8 7 7 7 6 6 2 0 1 3 3 3 4 4 4 4 5 4 3 4 4 4 3 3 4 3 3 3 3 4 4 5 5 5 5 5 5 7 7 7 5 8 15
10 9 10 8 7 4 2 2 1 3 3 3 3 5 5 5 5 5 4 4 4 4 4 4 2 3 2 1 2 2 2 4 5 5 4 4 5 7 6 6 5 5 6
9 9 7 7 5 4 2 1 2 2 2 2 2 4 5 5 6 6 6 5 5 3 4 4 3 1 2 1 1 0 3 3 2 4 3 4 6 3 5 6 7 8 7
6 6 5 4 4 2 2 1 1 1 1 2 2 3 4 5 6 8 6 4 4 3 3 3 3 5 2 2 4 1 1 2 3 1 3 4 5 3 4 5 6 7 7
2 8 6 3 4 4 5 3 4 2 3 2 2 3 4 4 6 6 5 5 5 4 4 4 4 3 3 3 2 3 3 2 1 4 1 3 4 5 6 5 5 6 7
6 8 10 5 4 4 5 3 2 2 2 3 3 6 5 5 5 6 5 5 5 4 4 5 4 5 3 2 2 1 1 1 2 2 3 3 2 3 5 5 6 5 7
5 3 3 7 5 7 5 6 6 6 5 4 3 4 5 4 4 8 5 5 5 4 4 5 6 5 5 4 3 4 4 3 3 3 3 2 3 3 2 3 5 6 6
Wind_Direction
161 154 144 132 124 118 112 107 105 103 103 104 104 98 96 104 108 114 114 107 101 100 100 99 92 89 95 103 104 103 101 100 104 104 103 100 102 99 95 91 86 91 89
141 148 147 139 132 125 119 112 107 104 101 95 96 103 105 104 108 114 115 107 105 126 124 114 103 98 101 103 104 110 111 111 110 108 107 102 98 100 98 99 94 95 97
141 146 146 145 138 132 126 119 114 110 106 100 97 98 97 105 117 112 103 112 103 122 110 113 115 110 113 110 113 115 117 114 113 107 95 94 89 100 97 100 96 100 96
137 143 143 150 145 140 135 129 123 118 111 104 101 99 101 100 99 112 112 107 109 113 112 112 116 118 117 116 119 119 112 103 102 89 94 94 97 105 106 108 104 104 103
135 137 152 154 151 148 143 140 135 128 121 115 111 107 106 113 126 119 128 125 120 117 122 124 124 125 125 122 116 122 120 115 99 80 85 89 94 116 117 111 113 116 110
128 139 162 159 158 156 153 151 146 143 137 133 127 115 105 97 120 133 122 123 121 134 125 121 115 125 137 129 131 133 129 106 101 75 75 72 106 138 131 130 130 126 130
136 151 160 162 165 165 164 163 156 156 153 150 142 135 119 94 122 121 130 121 116 126 136 131 126 127 131 136 140 135 124 129 132 148 145 129 177 187 161 160 147 145 147
144 155 162 167 171 176 174 172 165 169 166 166 159 151 138 111 88 122 131 139 136 138 140 144 138 138 139 138 140 148 158 154 136 142 161 169 206 222 182 173 174 164 162
145 148 168 171 178 184 186 180 180 181 181 177 172 168 170 160 138 128 141 162 156 152 149 146 147 148 154 164 175 178 184 198 154 183 202 199 204 204 196 204 183 181 182
128 158 170 177 190 178 193 196 193 193 195 190 184 190 197 197 188 178 156 200 192 181 171 175 173 167 172 184 197 204 214 227 187 212 230 210 206 202 210 189 194 198 199
148 164 167 174 201 172 190 224 204 202 202 201 207 223 233 74 20 16 211 207 206 204 192 197 197 197 204 213 221 229 229 205 231 223 226 206 208 207 213 204 209 213 212
181 182 180 173 195 171 185 216 215 216 60 183 85 202 38 141 195 262 264 232 211 210 212 209 220 221 225 200 245 249 297 228 223 241 227 225 207 214 216 213 204 209 216
184 191 185 179 189 179 185 183 231 159 198 229 152 253 205 176 240 292 266 301 351 303 273 315 276 268 249 231 236 230 219 230 233 233 232 219 208 219 227 225 214 208 214
186 189 183 183 186 205 173 189 216 183 206 246 182 218 180 203 201 242 260 252 254 274 251 248 250 250 254 247 234 240 234 235 241 242 239 232 223 228 236 226 229 224 224
194 198 196 174 192 191 209 194 213 203 212 228 225 229 211 182 220 209 224 208 220 215 220 237 242 241 252 246 237 229 238 227 231 228 236 237 236 237 233 226 225 227 230
196 205 187 181 186 181 213 206 214 193 233 224 243 232 248 187 183 206 212 217 216 218 206 241 237 230 252 243 244 237 239 237 225 228 228 237 241 237 232 225 227 225 225
200 187 184 181 173 197 210 219 211 203 199 232 243 220 233 205 188 209 184 262 228 238 213 221 234 259 263 250 244 242 234 235 232 229 230 219 232 244 244 225 228 225 224
169 189 177 193 201 208 213 220 217 204 211 231 236 218 229 208 185 201 167 231 247 230 242 227 214 249 249 239 240 228 234 249 255 242 239 222 221 230 244 237 229 224 224
195 177 190 187 203 215 217 215 234 230 222 235 241 240 226 211 195 190 188 194 235 246 231 248 262 228 222 249 254 256 246 246 250 247 250 241 229 224 219 233 232 228 227
177 195 197 207 191 191 234 328 342 289 264 247 244 236 218 212 203 190 202 217 218 217 223 214 239 227 239 260 263 255 231 234 236 238 252 255 222 231 219 213 226 236 230
169 177 201 181 192 156 151 167 198 236 258 263 245 240 217 205 207 209 222 213 218 223 218 194 209 231 285 230 313 255 245 228 241 245 244 276 262 238 224 218 210 214 226
175 177 191 188 174 195 169 188 177 176 231 247 260 264 238 215 207 209 222 232 215 216 223 191 197 198 246 203 249 7 338 320 274 226 201 239 253 262 255 231 225 220 213
189 178 173 139 133 185 177 114 46 18 335 298 278 269 257 231 215 209 211 216 235 213 226 236 192 198 211 239 228 204 312 272 314 232 220 239 240 243 249 256 232 231 225
143 85 89 107 160 177 170 194 202 226 249 278 292 306 299 258 242 229 205 205 222 216 224 224 221 211 181 221 227 229 234 215 278 327 275 261 247 241 233 232 240 237 228
83 155 207 171 161 113 151 177 231 278 301 308 309 312 314 316 296 269 231 232 210 216 229 232 217 213 206 192 214 185 223 252 225 207 286 316 276 233 232 219 216 226 232
43 136 194 142 189 193 199 188 185 212 245 267 276 293 291 274 273 279 246 239 232 223 219 235 250 223 215 218 209 208 197 199 204 199 234 254 281 304 268 230 223 217 216